COSMOS 2251 DEB, 34128

Orbit data source: Space-Track

COSMOS 2251 DEB, 34128 is space debris in LEO originally from a launch on Wed, 16 Jun 1993 UTC launched from the Plesetsk Missile And Space Complex (PKMTR). The debris from Iridium 33, an American commercial communications satellite, has been tracked extensively since its accidental collision with the defunct Russian satellite Cosmos 2251 in 2009. This event, occurring at high speed in low Earth orbit (LEO), generated thousands of pieces of space debris, significantly increasing the risk of further collisions. The Iridium 33 debris cloud has impacted space traffic management and orbital debris mitigation strategies, making it a subject of ongoing study in space situational awareness.

Loading next visibility...
Identifier
34128, 1993-036KZ
Orbit
LEO
Country
Flag of CISCIS
Related business
Manufacturer
Unknown
Mission
Spacecraft
Bus & Motor
Unknown
Mass
Unknown
Launch date (UTC)
1993-06-16 (33 years ago)
Launch vehicle
Unknown
Launch site
Plesetsk Missile And Space Complex (PKMTR)
Object type
Payload
Rocket body
Debris
Shape & HBR
Unknown shape, 0.1 m
Radar Cross Section
Small (<0.1 m²)

Expand to show TLE details & history
Last TLE update: 8 hours ago

TLE from 8 hours ago
0 COSMOS 2251 DEB
1 34128U 93036KZ  26125.07912566  .00047185  00000-0  26705-2 0  9998
2 34128  73.9941   1.7818 0026241  99.2530  51.4158 15.12519913913252
Epoch: 2026-05-05T01:53Z
TLE epoch observation values (Epoch: 2026-05-05T01:53:56.457Z)
Latitude
27.9179°
Longitude
-78.3568°
Altitude
520.425 km
Speed
7.612 km/s
True Right ascension
11h 32m 21s
True Declination
27° 46' 16"
Sunlit
Object was in full shadow at epoch
Visualization orbit readout
Latitude
Unknown
Longitude
Unknown
Altitude
Unknown
Speed
Unknown
Apparent Right ascension
Unknown
Apparent Declination
Unknown
Sunlit
N/A
Visualization observer readout
Local Sidereal Time
18:07:13
Azimuth
Unknown
Elevation
Unknown
Doppler factor
Unknown
Orbital elements
Apogee altitude
544.179 km
Perigee altitude
507.945 km
Semi-major axis
6,904.199 km
Eccentricity
0.00262
Inclination
73.9941°
RAAN
1.7818°
Arg. of periapsis
99.253°
True anomaly
51.65134°
Mean anomaly
51.4158°
Eccentric anomaly
51.53352°
Mean motion
3.78332 °/min
Orbital period
95.15 mins
BSTAR
0.0026705
Loading maneuver chart data...
Computing Atmospheric mass density...

Documentation

Showing up to 5 results
|